Regional Weather Roundup
Issued by NWS

Home | Current Version | Previous Version | Graphics & Text | Print | Product List | Glossary On
Versions: 1 2 3 4 5 6 7 8 9 10 11 12 13 14 15 16 17 18 19 20 21 22 23 24 25 26 27 28 29 30 31 32 33 34 35 36 37 38 39 40 41 42 43 44 45 46 47 48 49 50
000
ASUS43 KIND 240959
RWRIN

WEATHER ROUNDUP FOR INDIANA
NATIONAL WEATHER SERVICE INDIANAPOLIS IN
600 AM EDT SUN MAY 24 2015

NOTE: "FAIR" INDICATES FEW OR NO CLOUDS BELOW 12,000 FEET WITH NO
SIGNIFICANT WEATHER AND/OR OBSTRUCTIONS TO VISIBILITY.

* - STATION DOES NOT REPORT WEATHER SUCH AS PRECIPITATION OR FOG.

+ - STATION NOT QUALITY CONTROLLED BY THE NATIONAL WEATHER SERVICE.
    USE DATA WITH CAUTION...ESPECIALLY DEWPOINT AND RELATIVE
    HUMIDITY OBSERVATIONS.

INZ001>003-010>013-019-020-241100-
NORTHWEST INDIANA

CITY           SKY/WX    TMP DP  RH WIND       PRES   REMARKS
GARY /AIRPORT/ MOCLDY    64  48  55 SE7       30.21R

$$

LMZ046-743>745-241100-
SOUTHERN LAKE MICHIGAN

STATION/POSITION TIME  TEMP    WIND        PRES    WAVE
                       AIR SEA DIR/SP/G            HT
                 (UTC) (F)     (DEG/KT/KT) (MB)    (FT)
BURNS HARBOR     0900   66     180/  5/  9 1023.4S
MICHIGAN CITY    0900   65     140/  9/ 12   N/A
5NW MICH CITY    0900   58 54  160/  4/  6   N/A     0

$$

INZ004-005-014>016-021>024-241100-
NORTH CENTRAL INDIANA

CITY           SKY/WX    TMP DP  RH WIND       PRES   REMARKS
GOSHEN         PTCLDY    52  47  83 CALM      30.25R
SOUTH BEND     MOCLDY    55  48  77 CALM      30.25S

$$

INZ006>009-017-018-025>027-241100-
NORTHEAST INDIANA

CITY           SKY/WX    TMP DP  RH WIND       PRES   REMARKS
ANGOLA *+      CLEAR     52  48  87 CALM      30.27R
FORT WAYNE     MOCLDY    55  47  74 CALM      30.26S

$$

INZ028-029-035-036-043>045-051>053-241100-
WEST CENTRAL INDIANA

CITY           SKY/WX    TMP DP  RH WIND       PRES   REMARKS
GREENCASTLE +  CLOUDY    59  46  63 SE5       30.22F
LAFAYETTE      CLOUDY    59  50  72 E5        30.20F
TERRE HAUTE    MOCLDY    63  51  65 SE5       30.19F

$$

INZ030>032-037>040-046>048-054>057-064-065-241100-
CENTRAL INDIANA

CITY           SKY/WX    TMP DP  RH WIND       PRES   REMARKS
GREENWOOD *+   MOCLDY    61  46  59 SE5       30.24S
INDIANAPOLIS   MOCLDY    62  48  60 SE7       30.21S
-EAGLE CREEK   MOCLDY    61  48  62 SE3       30.22S
KOKOMO *+      CLOUDY    57  46  67 SE6       30.23S
MT COMFORT *+  MOCLDY    61  39  44 SE6       30.24S
SHELBYVILLE    MOCLDY    63  49  60 SE8       30.23S

$$

INZ033-034-041-042-049-050-058-059-241100-
EAST CENTRAL INDIANA

CITY           SKY/WX    TMP DP  RH WIND       PRES   REMARKS
MUNCIE         MOCLDY    63  47  55 S7        30.25S

$$

INZ060-061-067>069-081>083-085>088-241100-
SOUTHWEST INDIANA

CITY           SKY/WX    TMP DP  RH WIND       PRES   REMARKS
EVANSVILLE     MOCLDY    60  54  80 NE3       30.19R
HUNTINGBURG *+ MOCLDY    64  50  59 SE8       30.21R

$$

INZ062-063-066-070>080-084-089>092-241100-
SOUTH CENTRAL AND SOUTHEAST INDIANA

CITY           SKY/WX    TMP DP  RH WIND       PRES   REMARKS
BLOOMINGTON    CLOUDY    61  52  72 CALM      30.22S
MADISON *+     MOCLDY    61  46  59 SE5       30.27S
SEYMOUR +      CLOUDY    59  52  77 S3        30.23S

$$




USA.gov is the U.S. government's official web portal to all federal, state and local government web resources and services.